Regional Weather Roundup
Issued by NWS Goodland, KS

Home | Current Version | Previous Version | Graphics & Text | Print | Product List | Glossary On
Versions: 1 2 3 4 5 6 7 8 9 10 11 12 13 14 15 16 17 18 19 20 21 22 23 24 25 26 27 28 29 30 31 32 33 34 35 36 37 38 39 40 41 42 43 44 45 46 47 48 49 50
000
ASUS43 KGLD 261408
RWRGLD

GOODLAND FORECAST AREA HOURLY WEATHER ROUNDUP
NATIONAL WEATHER SERVICE GOODLAND KS
800 AM MDT THU APR 26 2018

...OFFICIAL OBSERVATIONS...

CITY           SKY/WX    TMP DP  RH WIND       PRES   REMARKS
GOODLAND KS    CLOUDY    50  34  54 N25G39    30.02R
HILL CITY KS   MOSUNNY   42  38  85 W6        29.99R
IMPERIAL NEB   CLOUDY    50  35  56 NW29G39   30.08R
MCCOOK NEB     CLOUDY    47  38  71 N20       29.98R
AKRON CO       CLOUDY    47  31  53 N38G48    30.17R
BURLINGTON CO  CLOUDY    51  33  50 N24G43    30.07R
LIMON CO       SUNNY     45  30  55 N31G44    30.17R
$$

...UNOFFICIAL OBSERVATIONS...

CITY           SKY/WX    TMP DP  RH WIND       PRES   REMARKS
COLBY KS       CLOUDY    48  37  66 N22G31    30.01R
NORTON KS      SUNNY     45  37  76 W7        29.97
SHARON SPRINGS   N/A     50  37  59 N25G35      N/A
KIT CARSON CO    N/A     50  33  51 MISG        N/A
YUMA CO        FAIR      46  27  46 N28G35    30.14R
$$




USA.gov is the U.S. government's official web portal to all federal, state and local government web resources and services.